Weather History for Presque Isle, ME

Change the Weather History Date:

Saturday, January 19, 2013

  Actual Average Record
Temperature  
Mean Temperature 10 °F -  
Max Temperature 21 °F 20 °F 51 °F (1929)
Min Temperature 0 °F 1 °F -34 °F (1997)
Degree Days  
Heating Degree Days 54    
Moisture  
Dew Point 3 °F    
Average Humidity 66    
Maximum Humidity 86    
Minimum Humidity 28    
Precipitation  
Precipitation 0.00 in - - ()
Sea Level Pressure  
Sea Level Pressure 29.95 in    
Wind  
Wind Speed 6 mph (SE)    
Max Wind Speed 9 mph    
Max Gust Speed -    
Visibility 9 miles    
Events      
Averages and records for this station are not official NWS values.
T = Trace of Precipitation, MM = Missing Value Source: NWS Daily Summary

Daily Weather History Graph

Daily Weather History Graph

Search for Another Location

Airport:

Trip Planner

Search our weather history database for the weather conditions in past years. The results will help you decide how hot, cold, wet, or windy it might be!

Date:

Astronomy

Jan. 19, 2013 Rise Set
Actual Time 7:09 AM EST 4:17 PM EST
Civil Twilight 6:35 AM EST 4:50 PM EST
Nautical Twilight 5:58 AM EST 5:27 PM EST
Astronomical Twilight 5:22 AM EST 6:03 PM EST
Moon 10:45 AM EST (1/19) 12:34 AM EST (1/19)
Length of Visible Light 10h 14m
Length of Day
9h 07m
First Quarter, 57% of the Moon is Illuminated
Jan 19
First Quarter
Jan 26
Full
Feb 3
Last Quarter
Feb 10
New
Feb 17
First Quarter

Hourly Weather History & Observations

Time (EST) Temp. Windchill Dew Point Humidity Pressure Visibility Wind Dir Wind Speed Gust Speed Precip Events Conditions
12:15 AM -0.4 °F -15.7 °F -14.8 °F 51% 30.13 in 10.0 mi SSW 9.2 mph - N/A   Clear
12:35 AM -0.4 °F -14.7 °F -14.8 °F 51% 30.14 in 10.0 mi SSW 8.1 mph - N/A   Clear
12:55 AM -0.4 °F -13.4 °F -16.6 °F 46% 30.14 in 10.0 mi SSW 6.9 mph - N/A   Scattered Clouds
1:15 AM -0.4 °F -13.4 °F -14.8 °F 51% 30.14 in 10.0 mi SSW 6.9 mph - N/A   Mostly Cloudy
1:35 AM -0.4 °F -15.7 °F -14.8 °F 51% 30.14 in 10.0 mi SSW 9.2 mph - N/A   Partly Cloudy
1:55 AM 1.4 °F -11.3 °F -13.0 °F 51% 30.14 in 10.0 mi SSW 6.9 mph - N/A   Partly Cloudy
2:15 AM 1.4 °F -12.5 °F -14.8 °F 47% 30.13 in 10.0 mi South 8.1 mph - N/A   Scattered Clouds
2:55 AM 1.4 °F - -16.6 °F 43% 30.12 in 10.0 mi Calm Calm - N/A   Clear
3:15 AM -0.4 °F - -14.8 °F 51% 30.11 in 10.0 mi Calm Calm - N/A   Clear
3:35 AM -0.4 °F - -14.8 °F 51% 30.10 in 10.0 mi Calm Calm - N/A   Partly Cloudy
3:55 AM -0.4 °F - -14.8 °F 51% 30.08 in 10.0 mi Calm Calm - N/A   Scattered Clouds
4:15 AM 1.4 °F - -9.4 °F 61% 30.07 in 10.0 mi Calm Calm - N/A   Mostly Cloudy
4:35 AM -0.4 °F - -9.4 °F 66% 30.06 in 10.0 mi Calm Calm - N/A   Overcast
4:55 AM 1.4 °F - -16.6 °F 43% 30.05 in 10.0 mi Calm Calm - N/A   Overcast
5:15 AM 1.4 °F - -18.4 °F 39% 30.04 in 10.0 mi Calm Calm - N/A   Overcast
5:35 AM 3.2 °F - - N/A% 30.03 in 10.0 mi Calm Calm - N/A   Overcast
5:55 AM 3.2 °F - -23.8 °F 28% 30.03 in 9.0 mi Calm Calm - N/A   Overcast
6:15 AM 5.0 °F -2.1 °F -16.6 °F 36% 30.02 in 6.0 mi SE 3.5 mph - N/A   Overcast
6:35 AM 6.8 °F -4.8 °F -9.4 °F 48% 30.02 in 9.0 mi SE 6.9 mph - N/A   Overcast
6:55 AM 3.2 °F -6.2 °F -5.8 °F 66% 30.01 in 5.0 mi SE 4.6 mph - N/A   Overcast
7:15 AM 3.2 °F -6.2 °F -7.6 °F 61% 30.01 in 7.0 mi SSE 4.6 mph - N/A   Overcast
7:35 AM 3.2 °F -7.8 °F -5.8 °F 66% 30.00 in 10.0 mi SSE 5.8 mph - N/A   Overcast
7:55 AM 5.0 °F -6.9 °F -2.2 °F 72% 30.00 in 9.0 mi SSE 6.9 mph - N/A   Overcast
8:15 AM 5.0 °F -6.9 °F -0.4 °F 78% 29.99 in 6.0 mi SSE 6.9 mph - N/A   Overcast
8:35 AM 6.8 °F -2.0 °F 1.4 °F 79% 29.99 in 4.0 mi SE 4.6 mph - N/A   Overcast
8:55 AM 6.8 °F -2.0 °F 1.4 °F 79% 29.99 in 4.0 mi SSE 4.6 mph - N/A   Mostly Cloudy
9:35 AM 8.6 °F -3.7 °F 3.2 °F 79% 29.96 in 10.0 mi SSE 8.1 mph - N/A   Overcast
9:55 AM 10.4 °F -1.5 °F 3.2 °F 73% 29.95 in 10.0 mi SE 8.1 mph - N/A   Mostly Cloudy
10:15 AM 10.4 °F -1.5 °F 5.0 °F 79% 29.94 in 10.0 mi SE 8.1 mph - N/A   Overcast
10:35 AM 12.2 °F 2.9 °F 5.0 °F 73% 29.93 in 10.0 mi SE 5.8 mph - N/A   Overcast
10:55 AM 14.0 °F 5.1 °F 6.8 °F 73% 29.91 in 10.0 mi SSE 5.8 mph - N/A   Mostly Cloudy
11:15 AM 15.8 °F 7.2 °F 6.8 °F 68% 29.90 in 10.0 mi SE 5.8 mph - N/A   Mostly Cloudy
11:35 AM 15.8 °F 6.1 °F 6.8 °F 68% 29.88 in 10.0 mi ESE 6.9 mph - N/A   Partly Cloudy
11:55 AM 17.6 °F 8.2 °F 6.8 °F 63% 29.87 in 10.0 mi ESE 6.9 mph - N/A   Clear
12:15 PM 17.6 °F 7.3 °F 6.8 °F 63% 29.86 in 10.0 mi ESE 8.1 mph - N/A   Partly Cloudy
12:35 PM 19.4 °F 11.5 °F 8.6 °F 63% 29.84 in 10.0 mi ESE 5.8 mph - N/A   Clear
12:55 PM 19.4 °F 11.5 °F 8.6 °F 63% 29.83 in 10.0 mi SE 5.8 mph - N/A   Mostly Cloudy
1:15 PM 19.4 °F 10.4 °F 10.4 °F 68% 29.83 in 10.0 mi ESE 6.9 mph - N/A   Mostly Cloudy
1:35 PM 19.4 °F 10.4 °F 10.4 °F 68% 29.83 in 10.0 mi ESE 6.9 mph - N/A   Mostly Cloudy
1:55 PM 21.2 °F 16.4 °F 10.4 °F 63% 29.83 in 10.0 mi ESE 3.5 mph - N/A   Overcast
2:15 PM 21.2 °F 13.6 °F 10.4 °F 63% 29.83 in 10.0 mi SE 5.8 mph - N/A   Mostly Cloudy
2:35 PM 21.2 °F 13.6 °F 12.2 °F 68% 29.83 in 10.0 mi SE 5.8 mph - N/A   Overcast
2:55 PM 21.2 °F 13.6 °F 12.2 °F 68% 29.84 in 8.0 mi SE 5.8 mph - N/A   Overcast
3:15 PM 21.2 °F 14.9 °F 12.2 °F 68% 29.84 in 10.0 mi SE 4.6 mph - N/A   Overcast
3:35 PM 21.2 °F 13.6 °F 12.2 °F 68% 29.84 in 10.0 mi SE 5.8 mph - N/A   Overcast
3:55 PM 21.2 °F 14.9 °F 12.2 °F 68% 29.84 in 10.0 mi SSE 4.6 mph - N/A   Overcast
4:15 PM 21.2 °F 12.6 °F 14.0 °F 74% 29.84 in 10.0 mi SSE 6.9 mph - N/A   Overcast
4:35 PM 21.2 °F 16.4 °F 14.0 °F 74% 29.84 in 10.0 mi SE 3.5 mph - N/A   Overcast
4:55 PM 21.2 °F 16.4 °F 14.0 °F 74% 29.84 in 9.0 mi SE 3.5 mph - N/A   Overcast
5:15 PM 21.2 °F 14.9 °F 15.8 °F 80% 29.85 in 10.0 mi SSE 4.6 mph - N/A   Overcast
5:35 PM 19.4 °F 12.8 °F 14.0 °F 80% 29.86 in 10.0 mi SSE 4.6 mph - N/A   Overcast
5:55 PM 19.4 °F 14.3 °F 14.0 °F 80% 29.86 in 10.0 mi SSE 3.5 mph - N/A   Overcast
6:15 PM 19.4 °F - 14.0 °F 80% 29.88 in 10.0 mi Calm Calm - N/A   Overcast
6:55 PM 21.2 °F - 15.8 °F 80% 29.89 in 10.0 mi Calm Calm - N/A   Overcast
7:15 PM 19.4 °F 11.5 °F 14.0 °F 80% 29.89 in 10.0 mi NE 5.8 mph - N/A   Overcast
7:35 PM 21.2 °F 13.6 °F 14.0 °F 74% 29.89 in 10.0 mi NE 5.8 mph - N/A   Overcast
7:55 PM 19.4 °F 11.5 °F 15.8 °F 86% 29.90 in 9.0 mi NE 5.8 mph - N/A   Overcast
8:15 PM 19.4 °F 10.4 °F 14.0 °F 80% 29.90 in 10.0 mi NE 6.9 mph - N/A   Overcast
8:35 PM 19.4 °F 11.5 °F 14.0 °F 80% 29.90 in 10.0 mi NNE 5.8 mph - N/A   Overcast
8:55 PM 19.4 °F 9.5 °F 12.2 °F 74% 29.90 in 10.0 mi NE 8.1 mph - N/A   Overcast
9:15 PM 19.4 °F 9.5 °F 12.2 °F 74% 29.90 in 10.0 mi NNE 8.1 mph - N/A   Overcast
9:35 PM 19.4 °F 11.5 °F 12.2 °F 74% 29.89 in 10.0 mi NE 5.8 mph - N/A   Overcast
9:55 PM 19.4 °F 11.5 °F 12.2 °F 74% 29.91 in 10.0 mi NE 5.8 mph - N/A   Overcast
10:15 PM 19.4 °F 11.5 °F 12.2 °F 74% 29.90 in 10.0 mi ENE 5.8 mph - N/A   Overcast
10:35 PM 19.4 °F 10.4 °F 12.2 °F 74% 29.89 in 10.0 mi ENE 6.9 mph - N/A   Overcast
10:55 PM 19.4 °F 9.5 °F 12.2 °F 74% 29.89 in 10.0 mi ENE 8.1 mph - N/A   Overcast
11:15 PM 19.4 °F 8.6 °F 12.2 °F 74% 29.88 in 10.0 mi ENE 9.2 mph - N/A   Overcast
11:35 PM 19.4 °F 9.5 °F 12.2 °F 74% 29.87 in 10.0 mi NE 8.1 mph - N/A   Overcast
11:55 PM 19.4 °F 9.5 °F 14.0 °F 80% 29.85 in 7.0 mi NE 8.1 mph - N/A   Overcast